| time (UTC) | temp F | wind direction | speed knots | gust knots | rain 1hr in | rain 24hr in | rain mn in | humidity % | barometer mb |
| 20260509112343 | 50 | 225 | 5.2 | 10.4 | 0.00 | 0.00 | 0.00 | 86 | 1002.1 |
| 20260509111840 | 51 | 211 | 6.1 | 14.8 | 0.00 | 0.00 | 0.00 | 86 | 1002.1 |
| 20260509111337 | 51 | 191 | 6.1 | 14.8 | 0.00 | 0.00 | 0.00 | 85 | 1002.1 |
| 20260509110835 | 51 | 246 | 7.0 | 16.5 | 0.00 | 0.00 | 0.00 | 86 | 1002.1 |
| 20260509110330 | 51 | 227 | 7.0 | 16.5 | 0.00 | 0.00 | 0.00 | 86 | 1002.1 |
| 20260509105829 | 51 | 203 | 6.1 | 11.3 | 0.00 | 0.00 | 0.00 | 85 | 1002.1 |
| 20260509105327 | 51 | 205 | 6.1 | 14.8 | 0.00 | 0.00 | 0.00 | 85 | 1002.1 |
| 20260509104823 | 52 | 184 | 7.0 | 17.4 | 0.00 | 0.00 | 0.00 | 85 | 1001.7 |
| 20260509104320 | 52 | 205 | 7.8 | 17.4 | 0.00 | 0.00 | 0.00 | 85 | 1002.1 |
| 20260509103818 | 52 | 217 | 7.0 | 14.8 | 0.00 | 0.00 | 0.00 | 85 | 1002.1 |
| 20260509103315 | 52 | 248 | 6.1 | 13.9 | 0.00 | 0.00 | 0.00 | 85 | 1002.1 |
| 20260509102814 | 52 | 200 | 6.1 | 13.9 | 0.00 | 0.00 | 0.00 | 85 | 1002.1 |
| 20260509102310 | 52 | 219 | 6.1 | 15.6 | 0.00 | 0.00 | 0.00 | 85 | 1002.1 |
| 20260509101806 | 52 | 215 | 6.1 | 15.6 | 0.00 | 0.00 | 0.00 | 85 | 1002.1 |
| 20260509101303 | 52 | 209 | 6.1 | 11.3 | 0.00 | 0.00 | 0.00 | 85 | 1002.1 |
| 20260509100800 | 52 | 196 | 7.0 | 15.6 | 0.00 | 0.00 | 0.00 | 84 | 1002.1 |
| 20260509100258 | 53 | 236 | 7.0 | 15.6 | 0.00 | 0.00 | 0.00 | 83 | 1002.1 |
| 20260509095754 | 53 | 202 | 5.2 | 13.9 | 0.00 | 0.00 | 0.00 | 83 | 1002.1 |
| 20260509095251 | 53 | 190 | 5.2 | 13.0 | 0.00 | 0.00 | 0.00 | 84 | 1002.1 |
| 20260509094748 | 53 | 200 | 5.2 | 14.8 | 0.00 | 0.00 | 0.00 | 84 | 1002.4 |
| 20260509094245 | 53 | 206 | 6.1 | 14.8 | 0.00 | 0.00 | 0.00 | 84 | 1002.4 |
| 20260509093743 | 53 | 199 | 7.0 | 15.6 | 0.00 | 0.00 | 0.00 | 83 | 1002.4 |
| 20260509093240 | 54 | 209 | 7.0 | 18.2 | 0.00 | 0.00 | 0.00 | 83 | 1002.4 |
| 20260509092738 | 53 | 159 | 6.1 | 18.2 | 0.00 | 0.00 | 0.00 | 84 | 1002.1 |
| 20260509092236 | 53 | 186 | 5.2 | 12.2 | 0.00 | 0.00 | 0.00 | 84 | 1002.4 |
| 20260509091734 | 53 | 176 | 5.2 | 12.2 | 0.00 | 0.00 | 0.00 | 83 | 1002.4 |
| 20260509091229 | 54 | 205 | 6.1 | 13.9 | 0.00 | 0.00 | 0.00 | 83 | 1002.4 |
| 20260509090727 | 54 | 234 | 6.1 | 13.9 | 0.00 | 0.00 | 0.00 | 84 | 1002.7 |
| 20260509090224 | 53 | 171 | 6.1 | 13.0 | 0.00 | 0.00 | 0.00 | 84 | 1002.7 |
| 20260509085722 | 53 | 175 | 5.2 | 13.0 | 0.00 | 0.00 | 0.00 | 84 | 1002.7 |
| 20260509085219 | 53 | 238 | 4.3 | 8.7 | 0.00 | 0.00 | 0.00 | 84 | 1002.7 |
| 20260509084716 | 53 | 234 | 4.3 | 7.8 | 0.00 | 0.00 | 0.00 | 84 | 1002.7 |
| 20260509084212 | 53 | 215 | 4.3 | 7.8 | 0.00 | 0.00 | 0.00 | 84 | 1002.7 |
| 20260509083711 | 53 | 198 | 4.3 | 9.6 | 0.00 | 0.00 | 0.00 | 85 | 1002.7 |
| 20260509083207 | 53 | 213 | 5.2 | 12.2 | 0.00 | 0.00 | 0.00 | 84 | 1002.7 |
| 20260509082703 | 53 | 215 | 6.1 | 12.2 | 0.00 | 0.00 | 0.00 | 83 | 1003.1 |
| 20260509082200 | 53 | 190 | 5.2 | 13.0 | 0.00 | 0.00 | 0.00 | 83 | 1003.1 |
| 20260509081657 | 53 | 194 | 5.2 | 13.9 | 0.00 | 0.00 | 0.00 | 83 | 1003.1 |
| 20260509081154 | 53 | 146 | 5.2 | 13.9 | 0.00 | 0.00 | 0.00 | 83 | 1003.4 |
| 20260509080652 | 53 | 196 | 5.2 | 14.8 | 0.00 | 0.00 | 0.00 | 82 | 1003.4 |
| 20260509080150 | 53 | 226 | 5.2 | 14.8 | 0.00 | 0.00 | 0.00 | 82 | 1003.4 |
| 20260509075648 | 53 | 226 | 5.2 | 9.6 | 0.00 | 0.00 | 0.00 | 82 | 1003.8 |
| 20260509075145 | 54 | 216 | 5.2 | 9.6 | 0.00 | 0.00 | 0.00 | 81 | 1003.8 |
| 20260509074642 | 54 | 180 | 5.2 | 12.2 | 0.00 | 0.00 | 0.00 | 81 | 1003.8 |
| 20260509074138 | 54 | 198 | 5.2 | 12.2 | 0.00 | 0.00 | 0.00 | 81 | 1003.8 |
| 20260509073635 | 54 | 197 | 4.3 | 9.6 | 0.00 | 0.00 | 0.00 | 81 | 1003.8 |
| 20260509073131 | 54 | 166 | 4.3 | 11.3 | 0.00 | 0.00 | 0.00 | 80 | 1003.8 |
| 20260509072629 | 54 | 202 | 4.3 | 11.3 | 0.00 | 0.00 | 0.00 | 80 | 1004.1 |
| 20260509072125 | 54 | 207 | 4.3 | 11.3 | 0.00 | 0.00 | 0.00 | 79 | 1004.4 |
| 20260509071622 | 54 | 203 | 5.2 | 11.3 | 0.00 | 0.00 | 0.00 | 79 | 1004.1 |
| 20260509071119 | 54 | 204 | 5.2 | 9.6 | 0.00 | 0.00 | 0.00 | 79 | 1004.1 |
| 20260509070616 | 54 | 219 | 5.2 | 9.6 | 0.00 | 0.00 | 0.00 | 79 | 1004.4 |
| 20260509070112 | 55 | 169 | 5.2 | 10.4 | 0.00 | 0.00 | 0.00 | 78 | 1004.4 |
| 20260509065608 | 55 | 236 | 5.2 | 10.4 | 0.00 | 0.00 | 0.00 | 78 | 1004.4 |
| 20260509065104 | 55 | 220 | 5.2 | 10.4 | 0.00 | 0.00 | 0.00 | 77 | 1004.4 |
| 20260509064602 | 55 | 219 | 5.2 | 10.4 | 0.00 | 0.00 | 0.00 | 77 | 1004.4 |
| 20260509064100 | 55 | 172 | 5.2 | 17.4 | 0.00 | 0.00 | 0.00 | 76 | 1004.4 |
| 20260509063555 | 56 | 224 | 6.1 | 17.4 | 0.00 | 0.00 | 0.00 | 76 | 1004.4 |
| 20260509063053 | 56 | 235 | 5.2 | 14.8 | 0.00 | 0.00 | 0.00 | 75 | 1004.4 |
| 20260509062550 | 56 | 190 | 6.1 | 16.5 | 0.00 | 0.00 | 0.00 | 74 | 1004.8 |
| 20260509062047 | 56 | 183 | 6.1 | 16.5 | 0.00 | 0.00 | 0.00 | 73 | 1004.8 |
| 20260509061544 | 56 | 200 | 6.1 | 12.2 | 0.00 | 0.00 | 0.00 | 70 | 1004.8 |
| 20260509061041 | 57 | 187 | 5.2 | 12.2 | 0.00 | 0.00 | 0.00 | 67 | 1004.8 |
| 20260509060539 | 57 | 175 | 6.1 | 13.9 | 0.00 | 0.00 | 0.00 | 65 | 1004.8 |
| 20260509060034 | 57 | 194 | 6.1 | 13.9 | 0.00 | 0.00 | 0.00 | 63 | 1004.8 |
| 20260509055530 | 57 | 180 | 4.3 | 10.4 | 0.00 | 0.00 | 0.00 | 62 | 1005.1 |
| 20260509055026 | 56 | 181 | 4.3 | 10.4 | 0.00 | 0.00 | 0.00 | 61 | 1004.8 |
| 20260509054523 | 56 | 192 | 4.3 | 10.4 | 0.00 | 0.00 | 0.00 | 59 | 1005.1 |
| 20260509054021 | 56 | 207 | 3.5 | 9.6 | 0.00 | 0.00 | 0.00 | 58 | 1005.1 |
| 20260509053520 | 54 | 207 | 2.6 | 8.7 | 0.00 | 0.00 | 0.00 | 60 | 1005.5 |
| 20260509053016 | 52 | 189 | 0.9 | 3.5 | 0.00 | 0.00 | 0.00 | 64 | 1005.5 |
| 20260509052514 | 52 | 115 | 0.9 | 3.5 | 0.00 | 0.00 | 0.00 | 64 | 1005.1 |
| 20260509052012 | 52 | 97 | 0.9 | 2.6 | 0.00 | 0.00 | 0.00 | 64 | 1005.5 |
| 20260509051509 | 52 | 95 | 0.0 | 1.7 | 0.00 | 0.00 | 0.00 | 64 | 1005.5 |
| 20260509051006 | 52 | 94 | 0.0 | 1.7 | 0.00 | 0.00 | 0.00 | 65 | 1005.5 |
| 20260509050503 | 52 | 161 | 0.0 | 1.7 | 0.00 | 0.00 | 0.00 | 65 | 1005.5 |
| 20260509045959 | 52 | 181 | 0.0 | 0.9 | 0.00 | 0.00 | 0.00 | 66 | 1005.5 |
| 20260509045457 | 52 | 181 | 0.0 | 1.7 | 0.00 | 0.00 | 0.00 | 66 | 1005.5 |
| 20260509044953 | 51 | 181 | 0.0 | 1.7 | 0.00 | 0.00 | 0.00 | 66 | 1005.9 |
| 20260509044451 | 52 | 181 | 0.0 | 1.7 | 0.00 | 0.00 | 0.00 | 66 | 1005.5 |
| 20260509043948 | 52 | 180 | 0.9 | 4.3 | 0.00 | 0.00 | 0.00 | 65 | 1005.5 |
| 20260509043444 | 52 | 180 | 0.9 | 4.3 | 0.00 | 0.00 | 0.00 | 65 | 1005.5 |
| 20260509042939 | 52 | 165 | 0.9 | 4.3 | 0.00 | 0.00 | 0.00 | 64 | 1005.5 |
| 20260509042437 | 53 | 182 | 0.9 | 2.6 | 0.00 | 0.00 | 0.00 | 62 | 1005.9 |
| 20260509041933 | 53 | 169 | 0.9 | 3.5 | 0.00 | 0.00 | 0.00 | 61 | 1005.9 |
| 20260509041430 | 53 | 177 | 1.7 | 3.5 | 0.00 | 0.00 | 0.00 | 60 | 1005.9 |
| 20260509040928 | 53 | 171 | 0.9 | 3.5 | 0.00 | 0.00 | 0.00 | 59 | 1005.9 |
| 20260509040426 | 53 | 188 | 1.7 | 4.3 | 0.00 | 0.00 | 0.00 | 57 | 1005.9 |
| 20260509035922 | 53 | 193 | 1.7 | 4.3 | 0.00 | 0.00 | 0.00 | 55 | 1005.9 |
| 20260509035419 | 53 | 178 | 1.7 | 4.3 | 0.00 | 0.00 | 0.00 | 53 | 1006.2 |
| 20260509034915 | 53 | 189 | 1.7 | 5.2 | 0.00 | 0.00 | 0.00 | 50 | 1006.2 |
| 20260509034414 | 53 | 165 | 2.6 | 5.2 | 0.00 | 0.00 | 0.00 | 48 | 1006.2 |
| 20260509033910 | 53 | 178 | 2.6 | 6.1 | 0.00 | 0.00 | 0.00 | 47 | 1006.2 |
| 20260509033407 | 53 | 177 | 2.6 | 6.1 | 0.00 | 0.00 | 0.00 | 45 | 1006.2 |
| 20260509032904 | 53 | 163 | 1.7 | 5.2 | 0.00 | 0.00 | 0.00 | 44 | 1006.2 |
| 20260509032401 | 52 | 189 | 1.7 | 7.0 | 0.00 | 0.00 | 0.00 | 44 | 1006.6 |
| 20260509031859 | 52 | 208 | 1.7 | 7.0 | 0.00 | 0.00 | 0.00 | 43 | 1006.6 |
| 20260509031356 | 52 | 159 | 1.7 | 5.2 | 0.00 | 0.00 | 0.00 | 42 | 1006.6 |
| 20260509030854 | 52 | 184 | 2.6 | 5.2 | 0.00 | 0.00 | 0.00 | 42 | 1006.6 |
| 20260509030351 | 52 | 180 | 2.6 | 6.1 | 0.00 | 0.00 | 0.00 | 42 | 1006.6 |
| 20260509025848 | 52 | 179 | 2.6 | 6.1 | 0.00 | 0.00 | 0.00 | 41 | 1006.6 |
| 20260509025343 | 52 | 182 | 1.7 | 5.2 | 0.00 | 0.00 | 0.00 | 41 | 1006.6 |
| 20260509024839 | 52 | 182 | 1.7 | 5.2 | 0.00 | 0.00 | 0.00 | 41 | 1006.9 |
| 20260509024336 | 53 | 180 | 1.7 | 5.2 | 0.00 | 0.00 | 0.00 | 40 | 1006.9 |
| 20260509023833 | 53 | 180 | 2.6 | 6.1 | 0.00 | 0.00 | 0.00 | 39 | 1006.9 |
| 20260509023330 | 53 | 180 | 2.6 | 6.1 | 0.00 | 0.00 | 0.00 | 39 | 1006.9 |
| 20260509022827 | 53 | 189 | 2.6 | 4.3 | 0.00 | 0.00 | 0.00 | 39 | 1006.9 |
| 20260509022324 | 53 | 190 | 1.7 | 4.3 | 0.00 | 0.00 | 0.00 | 39 | 1006.9 |
| 20260509021820 | 53 | 180 | 1.7 | 4.3 | 0.00 | 0.00 | 0.00 | 38 | 1006.9 |
| 20260509021318 | 53 | 175 | 2.6 | 5.2 | 0.00 | 0.00 | 0.00 | 38 | 1006.9 |
| 20260509020815 | 53 | 169 | 2.6 | 5.2 | 0.00 | 0.00 | 0.00 | 39 | 1006.9 |
| 20260509020313 | 53 | 171 | 2.6 | 6.1 | 0.00 | 0.00 | 0.00 | 38 | 1006.9 |
| 20260509015811 | 53 | 157 | 2.6 | 6.1 | 0.00 | 0.00 | 0.00 | 37 | 1006.9 |
| 20260509015309 | 53 | 179 | 2.6 | 4.3 | 0.00 | 0.00 | 0.00 | 37 | 1006.9 |
| 20260509014805 | 53 | 174 | 2.6 | 3.5 | 0.00 | 0.00 | 0.00 | 37 | 1006.9 |
| 20260509014302 | 54 | 173 | 2.6 | 5.2 | 0.00 | 0.00 | 0.00 | 37 | 1007.2 |
| 20260509013758 | 54 | 178 | 2.6 | 5.2 | 0.00 | 0.00 | 0.00 | 37 | 1006.9 |
| 20260509013248 | 54 | 181 | 1.7 | 3.5 | 0.00 | 0.00 | 0.00 | 37 | 1006.9 |
| 20260509012745 | 54 | 176 | 1.7 | 5.2 | 0.00 | 0.00 | 0.00 | 37 | 1006.9 |
| 20260509012241 | 54 | 175 | 1.7 | 5.2 | 0.00 | 0.00 | 0.00 | 36 | 1006.9 |
| 20260509011739 | 54 | 175 | 1.7 | 3.5 | 0.00 | 0.00 | 0.00 | 36 | 1006.9 |
| 20260509011236 | 55 | 174 | 1.7 | 4.3 | 0.00 | 0.00 | 0.00 | 35 | 1006.9 |
| 20260509010729 | 55 | 170 | 1.7 | 3.5 | 0.00 | 0.00 | 0.00 | 35 | 1006.9 |
| 20260509010225 | 55 | 185 | 1.7 | 3.5 | 0.00 | 0.00 | 0.00 | 35 | 1006.9 |
| 20260509005722 | 55 | 185 | 1.7 | 4.3 | 0.00 | 0.00 | 0.00 | 34 | 1006.9 |
| 20260509005220 | 56 | 179 | 1.7 | 6.1 | 0.00 | 0.00 | 0.00 | 34 | 1006.9 |
| 20260509004714 | 56 | 198 | 1.7 | 6.1 | 0.00 | 0.00 | 0.00 | 34 | 1006.9 |
| 20260509004212 | 57 | 166 | 2.6 | 6.1 | 0.00 | 0.00 | 0.00 | 33 | 1006.9 |
| 20260509003709 | 57 | 187 | 2.6 | 5.2 | 0.00 | 0.00 | 0.00 | 33 | 1006.9 |
| 20260509003207 | 57 | 183 | 1.7 | 4.3 | 0.00 | 0.00 | 0.00 | 33 | 1006.9 |
| 20260509002704 | 57 | 186 | 1.7 | 5.2 | 0.00 | 0.00 | 0.00 | 34 | 1006.9 |
| 20260509002202 | 58 | 184 | 2.6 | 7.8 | 0.00 | 0.00 | 0.00 | 33 | 1007.2 |
| 20260509001659 | 58 | 200 | 3.5 | 7.8 | 0.00 | 0.00 | 0.00 | 31 | 1007.2 |
| 20260509001155 | 58 | 169 | 3.5 | 7.8 | 0.00 | 0.00 | 0.00 | 33 | 1007.2 |
| 20260509000653 | 58 | 182 | 3.5 | 7.8 | 0.00 | 0.00 | 0.00 | 33 | 1007.2 |
| 20260509000150 | 58 | 182 | 2.6 | 8.7 | 0.00 | 0.00 | 0.00 | 34 | 1007.2 |
| 20260508235647 | 58 | 168 | 3.5 | 7.8 | 0.00 | 0.00 | 0.00 | 34 | 1007.2 |
| 20260508235143 | 58 | 148 | 3.5 | 7.8 | 0.00 | 0.00 | 0.00 | 34 | 1007.2 |
| 20260508234640 | 58 | 159 | 3.5 | 8.7 | 0.00 | 0.00 | 0.00 | 34 | 1007.2 |
| 20260508234137 | 58 | 173 | 4.3 | 9.6 | 0.00 | 0.00 | 0.00 | 33 | 1007.2 |
| 20260508233637 | 58 | 178 | 4.3 | 9.6 | 0.00 | 0.00 | 0.00 | 33 | 1007.6 |
| 20260508233133 | 59 | 225 | 3.5 | 8.7 | 0.00 | 0.00 | 0.00 | 32 | 1007.6 |
| 20260508232631 | 59 | 180 | 3.5 | 7.8 | 0.00 | 0.00 | 0.00 | 33 | 1007.6 |
| 20260508232127 | 59 | 161 | 3.5 | 8.7 | 0.00 | 0.00 | 0.00 | 32 | 1007.6 |
| 20260508231619 | 59 | 182 | 3.5 | 8.7 | 0.00 | 0.00 | 0.00 | 33 | 1007.6 |
| 20260508231116 | 59 | 209 | 4.3 | 8.7 | 0.00 | 0.00 | 0.00 | 33 | 1007.6 |
| 20260508230612 | 59 | 161 | 4.3 | 8.7 | 0.00 | 0.00 | 0.00 | 32 | 1007.6 |
| 20260508230108 | 59 | 246 | 4.3 | 8.7 | 0.00 | 0.00 | 0.00 | 33 | 1007.9 |
| 20260508225607 | 59 | 216 | 4.3 | 9.6 | 0.00 | 0.00 | 0.00 | 33 | 1007.9 |
| 20260508225102 | 59 | 161 | 4.3 | 9.6 | 0.00 | 0.00 | 0.00 | 32 | 1007.9 |
| 20260508224601 | 60 | 163 | 3.5 | 9.6 | 0.00 | 0.00 | 0.00 | 33 | 1007.9 |
| 20260508224058 | 60 | 223 | 4.3 | 8.7 | 0.00 | 0.00 | 0.00 | 33 | 1007.9 |
| 20260508223556 | 60 | 151 | 4.3 | 8.7 | 0.00 | 0.00 | 0.00 | 34 | 1007.9 |
| 20260508223053 | 60 | 233 | 4.3 | 11.3 | 0.00 | 0.00 | 0.00 | 33 | 1007.9 |
| 20260508222550 | 60 | 182 | 5.2 | 11.3 | 0.00 | 0.00 | 0.00 | 33 | 1007.9 |
| 20260508222047 | 60 | 215 | 5.2 | 8.7 | 0.00 | 0.00 | 0.00 | 32 | 1008.3 |
| 20260508221543 | 61 | 219 | 3.5 | 11.3 | 0.00 | 0.00 | 0.00 | 32 | 1008.3 |
| 20260508221039 | 61 | 196 | 3.5 | 11.3 | 0.00 | 0.00 | 0.00 | 30 | 1008.3 |
| 20260508220536 | 61 | 175 | 4.3 | 8.7 | 0.00 | 0.00 | 0.00 | 32 | 1008.3 |
| 20260508220032 | 62 | 182 | 3.5 | 8.7 | 0.00 | 0.00 | 0.00 | 32 | 1008.3 |
| 20260508215529 | 61 | 180 | 3.5 | 8.7 | 0.00 | 0.00 | 0.00 | 33 | 1008.3 |
| 20260508215026 | 62 | 172 | 3.5 | 8.7 | 0.00 | 0.00 | 0.00 | 33 | 1008.3 |
| 20260508214524 | 62 | 178 | 3.5 | 8.7 | 0.00 | 0.00 | 0.00 | 37 | 1008.3 |
| 20260508214020 | 61 | 201 | 3.5 | 8.7 | 0.00 | 0.00 | 0.00 | 36 | 1008.3 |
| 20260508213518 | 61 | 209 | 5.2 | 8.7 | 0.00 | 0.00 | 0.00 | 36 | 1008.3 |
| 20260508213013 | 60 | 184 | 5.2 | 11.3 | 0.00 | 0.00 | 0.00 | 34 | 1008.6 |
| 20260508212509 | 61 | 211 | 5.2 | 13.9 | 0.00 | 0.00 | 0.00 | 36 | 1008.6 |
| 20260508212006 | 62 | 161 | 5.2 | 10.4 | 0.00 | 0.00 | 0.00 | 37 | 1008.6 |
| 20260508211501 | 60 | 216 | 5.2 | 10.4 | 0.00 | 0.00 | 0.00 | 35 | 1008.9 |
| 20260508210958 | 59 | 176 | 5.2 | 11.3 | 0.00 | 0.00 | 0.00 | 39 | 1008.9 |
| 20260508210454 | 59 | 173 | 5.2 | 11.3 | 0.00 | 0.00 | 0.00 | 39 | 1008.9 |
| 20260508205950 | 59 | 142 | 4.3 | 10.4 | 0.00 | 0.00 | 0.00 | 39 | 1008.9 |
| 20260508205448 | 60 | 223 | 4.3 | 8.7 | 0.00 | 0.00 | 0.00 | 39 | 1008.9 |
| 20260508204944 | 61 | 164 | 4.3 | 8.7 | 0.00 | 0.00 | 0.00 | 40 | 1008.9 |
| 20260508204442 | 61 | 213 | 5.2 | 8.7 | 0.00 | 0.00 | 0.00 | 39 | 1008.9 |
| 20260508203937 | 61 | 213 | 4.3 | 8.7 | 0.00 | 0.00 | 0.00 | 39 | 1008.9 |
| 20260508203434 | 62 | 194 | 3.5 | 7.8 | 0.00 | 0.00 | 0.00 | 39 | 1008.9 |
| 20260508202929 | 61 | 216 | 4.3 | 8.7 | 0.00 | 0.00 | 0.00 | 38 | 1009.3 |
| 20260508202427 | 61 | 214 | 5.2 | 9.6 | 0.00 | 0.00 | 0.00 | 41 | 1009.3 |
| 20260508201924 | 62 | 236 | 5.2 | 10.4 | 0.00 | 0.00 | 0.00 | 39 | 1009.3 |
| 20260508201420 | 62 | 234 | 4.3 | 10.4 | 0.00 | 0.00 | 0.00 | 38 | 1009.3 |
| 20260508200917 | 63 | 163 | 4.3 | 9.6 | 0.00 | 0.00 | 0.00 | 42 | 1009.3 |
| 20260508200415 | 62 | 223 | 4.3 | 9.6 | 0.00 | 0.00 | 0.00 | 40 | 1009.6 |
| 20260508195909 | 62 | 209 | 3.5 | 8.7 | 0.00 | 0.00 | 0.00 | 41 | 1009.6 |
| 20260508195406 | 62 | 240 | 5.2 | 9.6 | 0.00 | 0.00 | 0.00 | 43 | 1009.6 |
| 20260508194857 | 62 | 211 | 5.2 | 9.6 | 0.00 | 0.00 | 0.00 | 41 | 1009.6 |
| 20260508194354 | 62 | 218 | 5.2 | 9.6 | 0.00 | 0.00 | 0.00 | 40 | 1009.6 |
| 20260508193851 | 61 | 202 | 5.2 | 9.6 | 0.00 | 0.00 | 0.00 | 39 | 1010.0 |
| 20260508193348 | 61 | 202 | 5.2 | 8.7 | 0.00 | 0.00 | 0.00 | 40 | 1010.0 |
| 20260508192844 | 62 | 219 | 4.3 | 7.8 | 0.00 | 0.00 | 0.00 | 37 | 1010.0 |
| 20260508192341 | 62 | 207 | 5.2 | 9.6 | 0.00 | 0.00 | 0.00 | 39 | 1010.0 |
| 20260508191838 | 62 | 179 | 5.2 | 9.6 | 0.00 | 0.00 | 0.00 | 40 | 1010.0 |
| 20260508191336 | 62 | 186 | 5.2 | 8.7 | 0.00 | 0.00 | 0.00 | 39 | 1010.0 |
| 20260508190833 | 62 | 215 | 4.3 | 10.4 | 0.00 | 0.00 | 0.00 | 38 | 1010.0 |
| 20260508190329 | 63 | 213 | 5.2 | 10.4 | 0.00 | 0.00 | 0.00 | 39 | 1010.3 |
| 20260508185825 | 62 | 246 | 6.1 | 11.3 | 0.00 | 0.00 | 0.00 | 38 | 1010.0 |
| 20260508185323 | 61 | 229 | 5.2 | 11.3 | 0.00 | 0.00 | 0.00 | 36 | 1010.3 |
| 20260508184820 | 62 | 263 | 5.2 | 11.3 | 0.00 | 0.00 | 0.00 | 36 | 1010.3 |
| 20260508184317 | 62 | 194 | 5.2 | 11.3 | 0.00 | 0.00 | 0.00 | 36 | 1010.3 |
| 20260508183814 | 62 | 161 | 4.3 | 8.7 | 0.00 | 0.00 | 0.00 | 39 | 1010.3 |
| 20260508183310 | 61 | 184 | 3.5 | 7.8 | 0.00 | 0.00 | 0.00 | 40 | 1010.3 |
| 20260508182806 | 61 | 224 | 3.5 | 6.1 | 0.00 | 0.00 | 0.00 | 38 | 1010.3 |
| 20260508182306 | 62 | 196 | 3.5 | 8.7 | 0.00 | 0.00 | 0.00 | 38 | 1010.6 |
| 20260508181759 | 63 | 213 | 4.3 | 8.7 | 0.00 | 0.00 | 0.00 | 41 | 1010.6 |
| 20260508181256 | 62 | 173 | 4.3 | 8.7 | 0.00 | 0.00 | 0.00 | 38 | 1010.6 |
| 20260508180753 | 62 | 221 | 4.3 | 8.7 | 0.00 | 0.00 | 0.00 | 37 | 1010.6 |
| 20260508180250 | 62 | 211 | 4.3 | 8.7 | 0.00 | 0.00 | 0.00 | 37 | 1010.6 |
| 20260508175746 | 61 | 208 | 4.3 | 8.7 | 0.00 | 0.00 | 0.00 | 37 | 1011.1 |
| 20260508175243 | 61 | 174 | 4.3 | 10.4 | 0.00 | 0.00 | 0.00 | 38 | 1011.1 |
| 20260508174741 | 60 | 199 | 4.3 | 10.4 | 0.00 | 0.00 | 0.00 | 38 | 1011.1 |
| 20260508174238 | 61 | 209 | 3.5 | 7.8 | 0.00 | 0.00 | 0.00 | 37 | 1011.1 |
| 20260508173734 | 60 | 223 | 4.3 | 7.0 | 0.00 | 0.00 | 0.00 | 40 | 1011.4 |
| 20260508173230 | 59 | 237 | 4.3 | 7.8 | 0.00 | 0.00 | 0.00 | 42 | 1011.4 |
| 20260508172727 | 59 | 160 | 4.3 | 9.6 | 0.00 | 0.00 | 0.00 | 44 | 1011.4 |
| 20260508172224 | 59 | 232 | 4.3 | 9.6 | 0.00 | 0.00 | 0.00 | 41 | 1011.8 |
| 20260508171721 | 59 | 198 | 4.3 | 9.6 | 0.00 | 0.00 | 0.00 | 45 | 1011.8 |
| 20260508171217 | 60 | 228 | 4.3 | 9.6 | 0.00 | 0.00 | 0.00 | 43 | 1011.8 |
| 20260508170714 | 59 | 224 | 3.5 | 9.6 | 0.00 | 0.00 | 0.00 | 45 | 1011.8 |
| 20260508170212 | 59 | 144 | 4.3 | 10.4 | 0.00 | 0.00 | 0.00 | 48 | 1011.8 |
| 20260508165708 | 58 | 150 | 5.2 | 10.4 | 0.00 | 0.00 | 0.00 | 46 | 1011.8 |
| 20260508165206 | 58 | 167 | 5.2 | 10.4 | 0.00 | 0.00 | 0.00 | 46 | 1011.8 |
| 20260508164702 | 59 | 232 | 5.2 | 11.3 | 0.00 | 0.00 | 0.00 | 46 | 1011.8 |
| 20260508164159 | 59 | 262 | 5.2 | 11.3 | 0.00 | 0.00 | 0.00 | 48 | 1011.8 |
| 20260508163657 | 58 | 224 | 4.3 | 8.7 | 0.00 | 0.00 | 0.00 | 46 | 1012.1 |
| 20260508163154 | 58 | 225 | 5.2 | 7.8 | 0.00 | 0.00 | 0.00 | 48 | 1012.1 |
| 20260508162649 | 57 | 239 | 5.2 | 7.8 | 0.00 | 0.00 | 0.00 | 52 | 1012.1 |
| 20260508162147 | 57 | 169 | 4.3 | 9.6 | 0.00 | 0.00 | 0.00 | 52 | 1012.1 |
| 20260508161643 | 58 | 193 | 4.3 | 9.6 | 0.00 | 0.00 | 0.00 | 52 | 1011.8 |
| 20260508161141 | 58 | 190 | 4.3 | 7.8 | 0.00 | 0.00 | 0.00 | 53 | 1012.1 |
| 20260508160639 | 58 | 239 | 3.5 | 7.0 | 0.00 | 0.00 | 0.00 | 55 | 1012.1 |
| 20260508160136 | 57 | 242 | 4.3 | 7.8 | 0.00 | 0.00 | 0.00 | 61 | 1012.1 |
| 20260508155634 | 56 | 193 | 5.2 | 8.7 | 0.00 | 0.00 | 0.00 | 61 | 1012.1 |
| 20260508155130 | 56 | 192 | 4.3 | 8.7 | 0.00 | 0.00 | 0.00 | 61 | 1012.1 |
| 20260508154627 | 56 | 212 | 5.2 | 9.6 | 0.00 | 0.00 | 0.00 | 63 | 1012.1 |
| 20260508154124 | 55 | 234 | 5.2 | 9.6 | 0.00 | 0.00 | 0.00 | 64 | 1012.1 |
| 20260508153621 | 56 | 207 | 4.3 | 7.8 | 0.00 | 0.00 | 0.00 | 64 | 1012.1 |
| 20260508153117 | 56 | 205 | 4.3 | 7.8 | 0.00 | 0.00 | 0.00 | 65 | 1012.1 |
| 20260508152609 | 55 | 242 | 5.2 | 8.7 | 0.00 | 0.00 | 0.00 | 66 | 1012.1 |
| 20260508152104 | 54 | 229 | 5.2 | 9.6 | 0.00 | 0.00 | 0.00 | 64 | 1012.1 |
| 20260508151601 | 55 | 221 | 5.2 | 9.6 | 0.00 | 0.00 | 0.00 | 65 | 1012.1 |
| 20260508151058 | 55 | 221 | 5.2 | 9.6 | 0.00 | 0.00 | 0.00 | 62 | 1012.1 |
| 20260508150555 | 55 | 200 | 4.3 | 9.6 | 0.00 | 0.00 | 0.00 | 62 | 1012.1 |
| 20260508150051 | 55 | 213 | 4.3 | 8.7 | 0.00 | 0.00 | 0.00 | 61 | 1012.1 |
| 20260508145548 | 55 | 195 | 4.3 | 8.7 | 0.00 | 0.00 | 0.00 | 59 | 1012.1 |
| 20260508145044 | 55 | 208 | 4.3 | 7.8 | 0.00 | 0.00 | 0.00 | 59 | 1012.1 |
| 20260508144542 | 55 | 174 | 4.3 | 8.7 | 0.00 | 0.00 | 0.00 | 56 | 1012.1 |
| 20260508144039 | 55 | 184 | 3.5 | 8.7 | 0.00 | 0.00 | 0.00 | 57 | 1012.1 |
| 20260508143536 | 55 | 169 | 4.3 | 8.7 | 0.00 | 0.00 | 0.00 | 56 | 1012.1 |
| 20260508143033 | 55 | 209 | 4.3 | 8.7 | 0.00 | 0.00 | 0.00 | 58 | 1012.1 |
| 20260508142530 | 55 | 168 | 3.5 | 8.7 | 0.00 | 0.00 | 0.00 | 55 | 1012.1 |
| 20260508142026 | 55 | 236 | 3.5 | 6.1 | 0.00 | 0.00 | 0.00 | 58 | 1012.1 |
| 20260508141523 | 55 | 204 | 2.6 | 6.1 | 0.00 | 0.00 | 0.00 | 58 | 1012.4 |
| 20260508141021 | 55 | 226 | 2.6 | 5.2 | 0.00 | 0.00 | 0.00 | 58 | 1012.1 |
| 20260508140518 | 54 | 225 | 2.6 | 6.1 | 0.00 | 0.00 | 0.00 | 61 | 1012.1 |
| 20260508140013 | 54 | 237 | 3.5 | 7.0 | 0.00 | 0.00 | 0.00 | 60 | 1012.4 |
| 20260508135510 | 53 | 227 | 3.5 | 7.0 | 0.00 | 0.00 | 0.00 | 63 | 1012.4 |
| 20260508135006 | 53 | 244 | 2.6 | 6.1 | 0.00 | 0.00 | 0.00 | 63 | 1012.4 |
| 20260508134503 | 52 | 171 | 2.6 | 6.1 | 0.00 | 0.00 | 0.00 | 65 | 1012.4 |
| 20260508134000 | 52 | 167 | 2.6 | 6.1 | 0.00 | 0.00 | 0.00 | 66 | 1012.4 |
| 20260508133457 | 51 | 203 | 3.5 | 7.0 | 0.00 | 0.00 | 0.00 | 67 | 1012.4 |
| 20260508132954 | 51 | 217 | 3.5 | 7.0 | 0.00 | 0.00 | 0.00 | 68 | 1012.1 |
| 20260508132452 | 51 | 222 | 3.5 | 7.0 | 0.00 | 0.00 | 0.00 | 68 | 1012.4 |
| 20260508131948 | 50 | 210 | 2.6 | 7.0 | 0.00 | 0.00 | 0.00 | 71 | 1012.4 |
| 20260508131443 | 50 | 190 | 2.6 | 6.1 | 0.00 | 0.00 | 0.00 | 71 | 1012.4 |
| 20260508130940 | 49 | 175 | 1.7 | 6.1 | 0.00 | 0.00 | 0.00 | 75 | 1012.4 |
| 20260508130438 | 48 | 228 | 1.7 | 3.5 | 0.00 | 0.00 | 0.00 | 77 | 1012.4 |
| 20260508125933 | 47 | 209 | 1.7 | 4.3 | 0.00 | 0.00 | 0.00 | 79 | 1012.8 |
| 20260508125429 | 46 | 224 | 1.7 | 4.3 | 0.00 | 0.00 | 0.00 | 82 | 1012.8 |
| 20260508124928 | 44 | 178 | 0.9 | 3.5 | 0.00 | 0.00 | 0.00 | 83 | 1012.8 |
| 20260508124425 | 44 | 176 | 0.0 | 3.5 | 0.00 | 0.00 | 0.00 | 84 | 1012.4 |
| 20260508123923 | 43 | 213 | 0.0 | 1.7 | 0.00 | 0.00 | 0.00 | 84 | 1012.4 |
| 20260508123421 | 42 | 184 | 0.0 | 0.9 | 0.00 | 0.00 | 0.00 | 85 | 1012.4 |
| 20260508122917 | 41 | 184 | 0.0 | 2.6 | 0.00 | 0.00 | 0.00 | 85 | 1012.8 |
| 20260508122414 | 41 | 184 | 0.9 | 2.6 | 0.00 | 0.00 | 0.00 | 87 | 1012.8 |
| 20260508121911 | 40 | 185 | 0.9 | 2.6 | 0.00 | 0.00 | 0.00 | 87 | 1012.8 |
| 20260508121409 | 39 | 177 | 0.0 | 0.0 | 0.00 | 0.00 | 0.00 | 88 | 1012.8 |
| 20260508120907 | 38 | 177 | 0.0 | 0.0 | 0.00 | 0.00 | 0.00 | 89 | 1012.4 |
| 20260508120404 | 37 | 179 | 0.0 | 0.0 | 0.00 | 0.00 | 0.00 | 89 | 1012.4 |
| 20260508115902 | 36 | 340 | 0.0 | 0.0 | 0.00 | 0.00 | 0.00 | 90 | 1012.4 |
| 20260508115400 | 35 | 340 | 0.0 | 0.0 | 0.00 | 0.00 | 0.00 | 90 | 1012.4 |
| 20260508114855 | 35 | 340 | 0.0 | 0.0 | 0.00 | 0.00 | 0.00 | 90 | 1012.4 |
| 20260508114353 | 34 | 340 | 0.0 | 0.0 | 0.00 | 0.00 | 0.00 | 90 | 1012.4 |
| 20260508113849 | 33 | 340 | 0.0 | 0.0 | 0.00 | 0.00 | 0.00 | 91 | 1012.4 |
| 20260508113347 | 33 | 340 | 0.0 | 0.0 | 0.00 | 0.00 | 0.00 | 91 | 1012.4 |
| 20260508112844 | 33 | 340 | 0.0 | 0.0 | 0.00 | 0.00 | 0.00 | 91 | 1012.1 |